Tracking 19817 objects as of 18-Aug-2019
HD Live streaming from Space Station
objects crossing your sky now

COSMOS 2251 DEB

Track COSMOS 2251 DEB now!
10-day predictions


NORAD ID: 36073
Int'l Code: 1993-036AYL
Perigee: 773.9 km
Apogee: 809.5 km
Inclination: 74.0 °
Period: 100.5 minutes
Semi major axis: 7162 km
RCS: 0.011 m2 (small)
Launch date: June 16, 1993
Source: Commonwealth of Independent States (former USSR) (CIS)
Launch site: PLESETSK MISSILE AND SPACE COMPLEX (PKMTR)

Note: This is SATELLITE DEBRIS
aabbcc
Your satellite tracking list
Your tracking list is empty




NASA's NSSDC Master Catalog

Two Line Element Set (TLE):
1 36073U 93036AYL 19226.68799225  .00000061  00000-0  32297-4 0  9992
2 36073  74.0309 227.2047 0024879 139.2932 221.0084 14.32147273520601
Source of the keplerian elements: AFSPC